| time (UTC) | temp F | wind direction | speed MPH | gust MPH | rain 1hr in | rain 24hr in | rain mn in | humidity % | barometer mb |
| 20260503001849 | 77 | 99 | 4.0 | 11.0 | 0.00 | 0.00 | 0.00 | 48 | 1011.4 |
| 20260503001502 | 77 | 85 | 5.0 | 14.0 | 0.00 | 0.00 | 0.00 | 46 | 1011.8 |
| 20260503000950 | 77 | 350 | 3.0 | 12.0 | 0.00 | 0.00 | 0.00 | 46 | 1011.5 |
| 20260503000109 | 78 | 2 | 2.0 | 11.0 | 0.00 | 0.00 | 0.00 | 45 | 1012.1 |
| 20260503000049 | 79 | 323 | 2.0 | 11.0 | 0.00 | 0.00 | 0.00 | 46 | 1011.5 |
| 20260502235149 | 79 | 310 | 2.0 | 9.0 | 0.00 | 0.00 | 0.00 | 46 | 1011.5 |
| 20260502234502 | 78 | 35 | 2.0 | 9.0 | 0.00 | 0.00 | 0.00 | 45 | 1012.2 |
| 20260502234249 | 78 | 305 | 4.0 | 12.0 | 0.00 | 0.00 | 0.00 | 46 | 1011.6 |
| 20260502231935 | 76 | 304 | 4.0 | 13.0 | 0.00 | 0.00 | 0.00 | 46 | 1011.8 |
| 20260502231502 | 77 | 276 | 3.0 | 13.0 | 0.00 | 0.00 | 0.00 | 47 | 1012.3 |
| 20260502231035 | 77 | 320 | 4.0 | 12.0 | 0.00 | 0.00 | 0.00 | 46 | 1011.9 |
| 20260502230134 | 77 | 314 | 4.0 | 10.0 | 0.00 | 0.00 | 0.00 | 47 | 1011.9 |
| 20260502225234 | 77 | 300 | 3.0 | 9.0 | 0.00 | 0.00 | 0.00 | 48 | 1012.1 |
| 20260502224504 | 76 | 334 | 3.0 | 7.0 | 0.00 | 0.00 | 0.00 | 49 | 1012.9 |
| 20260502223434 | 76 | 315 | 3.0 | 7.0 | 0.00 | 0.00 | 0.00 | 48 | 1012.5 |
| 20260502223102 | 76 | 259 | 2.0 | 7.0 | 0.00 | 0.00 | 0.00 | 53 | 1013.0 |
| 20260502222534 | 76 | 306 | 3.0 | 8.0 | 0.00 | 0.00 | 0.00 | 50 | 1012.6 |
| 20260502221634 | 75 | 307 | 4.0 | 9.0 | 0.00 | 0.00 | 0.00 | 52 | 1012.7 |
| 20260502221503 | 74 | 352 | 2.0 | 13.0 | 0.00 | 0.00 | 0.00 | 53 | 1013.2 |
| 20260502220005 | 73 | 338 | 5.0 | 13.0 | 0.00 | 0.00 | 0.00 | 51 | 1013.5 |
| 20260502215612 | 74 | 285 | 4.0 | 12.0 | 0.00 | 0.00 | 0.00 | 53 | 1013.0 |
| 20260502213002 | 73 | 276 | 3.0 | 13.0 | 0.00 | 0.00 | 0.00 | 56 | 1013.4 |
| 20260502212603 | 73 | 309 | 1.0 | 13.0 | 0.00 | 0.00 | 0.00 | 54 | 1013.1 |
| 20260502211608 | 72 | 289 | 1.0 | 8.0 | 0.00 | 0.00 | 0.00 | 58 | 1013.7 |
| 20260502210801 | 72 | 293 | 2.0 | 6.0 | 0.00 | 0.00 | 0.00 | 58 | 1013.4 |
| 20260502210003 | 71 | 281 | 1.0 | 6.0 | 0.00 | 0.00 | 0.00 | 58 | 1013.9 |
| 20260502205901 | 72 | 296 | 3.0 | 8.0 | 0.00 | 0.00 | 0.00 | 58 | 1013.4 |
| 20260502205002 | 72 | 289 | 3.0 | 8.0 | 0.00 | 0.00 | 0.00 | 58 | 1013.5 |
| 20260502204602 | 71 | 244 | 2.0 | 10.0 | 0.00 | 0.00 | 0.00 | 60 | 1014.0 |
| 20260502204101 | 72 | 286 | 2.0 | 10.0 | 0.00 | 0.00 | 0.00 | 60 | 1013.6 |
| 20260502203201 | 72 | 300 | 3.0 | 9.0 | 0.00 | 0.00 | 0.00 | 59 | 1013.6 |
| 20260502203002 | 72 | 260 | 1.0 | 9.0 | 0.00 | 0.00 | 0.00 | 59 | 1014.1 |
| 20260502202304 | 72 | 295 | 3.0 | 9.0 | 0.00 | 0.00 | 0.00 | 58 | 1013.8 |
| 20260502201602 | 71 | 311 | 4.0 | 10.0 | 0.00 | 0.00 | 0.00 | 59 | 1014.4 |
| 20260502201402 | 72 | 291 | 2.0 | 10.0 | 0.00 | 0.00 | 0.00 | 60 | 1013.9 |
| 20260502200502 | 73 | 17 | 2.0 | 4.0 | 0.00 | 0.00 | 0.00 | 60 | 1014.0 |
| 20260502200002 | 72 | 10 | 0.0 | 8.0 | 0.00 | 0.00 | 0.00 | 61 | 1014.6 |
| 20260502195602 | 71 | 301 | 3.0 | 10.0 | 0.00 | 0.00 | 0.00 | 63 | 1014.2 |
| 20260502194702 | 70 | 299 | 2.0 | 9.0 | 0.00 | 0.00 | 0.00 | 61 | 1014.2 |
| 20260502194601 | 70 | 319 | 4.0 | 10.0 | 0.00 | 0.00 | 0.00 | 61 | 1014.7 |
| 20260502193802 | 70 | 289 | 3.0 | 7.0 | 0.00 | 0.00 | 0.00 | 63 | 1014.3 |
| 20260502193002 | 69 | 351 | 2.0 | 10.0 | 0.00 | 0.00 | 0.00 | 66 | 1014.8 |
| 20260502192902 | 69 | 301 | 4.0 | 10.0 | 0.00 | 0.00 | 0.00 | 68 | 1014.4 |
| 20260502192001 | 68 | 308 | 3.0 | 10.0 | 0.00 | 0.00 | 0.00 | 67 | 1014.3 |
| 20260502191601 | 67 | 274 | 3.0 | 7.0 | 0.00 | 0.00 | 0.00 | 65 | 1015.1 |
| 20260502191101 | 67 | 305 | 4.0 | 8.0 | 0.00 | 0.00 | 0.00 | 65 | 1014.8 |
| 20260502190201 | 66 | 306 | 4.0 | 12.0 | 0.00 | 0.00 | 0.00 | 67 | 1014.9 |
| 20260502190002 | 66 | 6 | 5.0 | 12.0 | 0.00 | 0.00 | 0.00 | 66 | 1015.4 |
| 20260502185302 | 66 | 292 | 3.0 | 8.0 | 0.00 | 0.00 | 0.00 | 66 | 1014.7 |
| 20260502184602 | 66 | 158 | 2.0 | 10.0 | 0.00 | 0.00 | 0.00 | 70 | 1015.2 |
| 20260502184401 | 66 | 324 | 3.0 | 10.0 | 0.00 | 0.00 | 0.00 | 69 | 1014.8 |
| 20260502183005 | 63 | 320 | 1.0 | 10.0 | 0.00 | 0.00 | 0.00 | 72 | 1015.4 |
| 20260502182601 | 63 | 309 | 2.0 | 12.0 | 0.00 | 0.00 | 0.00 | 71 | 1015.1 |
| 20260502181702 | 62 | 336 | 1.0 | 9.0 | 0.00 | 0.00 | 0.00 | 74 | 1015.1 |
| 20260502181602 | 62 | 185 | 1.0 | 3.0 | 0.00 | 0.00 | 0.00 | 74 | 1015.7 |
| 20260502170502 | 55 | 275 | 1.0 | 6.0 | 0.00 | 0.00 | 0.00 | 86 | 1015.9 |
| 20260502163802 | 54 | 293 | 1.0 | 3.0 | 0.00 | 0.00 | 0.00 | 87 | 1015.6 |
| 20260502163002 | 53 | 283 | 1.0 | 3.0 | 0.00 | 0.00 | 0.00 | 87 | 1016.2 |
| 20260502162902 | 54 | 270 | 2.0 | 3.0 | 0.00 | 0.00 | 0.00 | 88 | 1015.6 |
| 20260502162002 | 53 | 282 | 1.0 | 4.0 | 0.00 | 0.00 | 0.00 | 88 | 1015.6 |
| 20260502161603 | 53 | 278 | 1.0 | 4.0 | 0.00 | 0.00 | 0.00 | 90 | 1016.1 |
| 20260502161102 | 53 | 271 | 1.0 | 4.0 | 0.00 | 0.00 | 0.00 | 90 | 1015.6 |
| 20260502160202 | 52 | 292 | 1.0 | 5.0 | 0.00 | 0.00 | 0.00 | 90 | 1015.6 |
| 20260502151702 | 50 | 237 | 1.0 | 2.0 | 0.00 | 0.00 | 0.00 | 93 | 1015.5 |
| 20260502151612 | 50 | 238 | 0.0 | 2.0 | 0.00 | 0.00 | 0.00 | 93 | 1016.1 |
| 20260502150802 | 50 | 261 | 1.0 | 4.0 | 0.00 | 0.00 | 0.00 | 94 | 1015.5 |
| 20260502130202 | 49 | 0 | 0.0 | 0.0 | 0.00 | 0.00 | 0.00 | 93 | 1015.3 |
| 20260502123002 | 49 | 224 | 0.0 | 2.0 | 0.00 | 0.00 | 0.00 | 92 | 1015.6 |
| 20260502122602 | 50 | 259 | 0.0 | 3.0 | 0.00 | 0.00 | 0.00 | 92 | 1015.1 |
| 20260502121702 | 50 | 0 | 0.0 | 2.0 | 0.00 | 0.00 | 0.00 | 92 | 1015.2 |
| 20260502121604 | 50 | 283 | 0.0 | 2.0 | 0.00 | 0.00 | 0.00 | 92 | 1015.7 |
| 20260502120802 | 50 | 0 | 0.0 | 1.0 | 0.00 | 0.00 | 0.00 | 92 | 1015.4 |
| 20260502115002 | 50 | 0 | 0.0 | 3.0 | 0.00 | 0.00 | 0.00 | 93 | 1015.6 |
| 20260502114604 | 50 | 166 | 0.0 | 3.0 | 0.00 | 0.00 | 0.00 | 93 | 1016.2 |
| 20260502114102 | 50 | 0 | 0.0 | 0.0 | 0.00 | 0.00 | 0.00 | 93 | 1015.6 |
| 20260502113202 | 50 | 0 | 0.0 | 0.0 | 0.00 | 0.00 | 0.00 | 93 | 1015.6 |
| 20260502113002 | 49 | 158 | 0.0 | 0.0 | 0.00 | 0.00 | 0.00 | 92 | 1016.2 |
| 20260502112305 | 50 | 0 | 0.0 | 0.0 | 0.00 | 0.00 | 0.00 | 92 | 1015.6 |
| 20260502111603 | 50 | 158 | 0.0 | 0.0 | 0.00 | 0.00 | 0.00 | 92 | 1016.2 |
| 20260502111402 | 50 | 0 | 0.0 | 0.0 | 0.00 | 0.00 | 0.00 | 92 | 1015.7 |
| 20260502110502 | 50 | 0 | 0.0 | 0.0 | 0.00 | 0.00 | 0.00 | 92 | 1015.7 |
| 20260502110005 | 50 | 175 | 0.0 | 0.0 | 0.00 | 0.00 | 0.00 | 92 | 1016.3 |
| 20260502105603 | 50 | 0 | 0.0 | 0.0 | 0.00 | 0.00 | 0.00 | 92 | 1015.7 |
| 20260502104603 | 50 | 165 | 0.0 | 0.0 | 0.00 | 0.00 | 0.00 | 92 | 1016.3 |
| 20260502103802 | 50 | 0 | 0.0 | 0.0 | 0.00 | 0.00 | 0.00 | 92 | 1015.9 |
| 20260502103003 | 50 | 179 | 0.0 | 1.0 | 0.00 | 0.00 | 0.00 | 92 | 1016.4 |
| 20260502102004 | 50 | 0 | 1.0 | 0.0 | 0.00 | 0.00 | 0.00 | 92 | 1016.2 |
| 20260502101603 | 50 | 173 | 0.0 | 1.0 | 0.00 | 0.00 | 0.00 | 92 | 1016.7 |
| 20260502101102 | 50 | 134 | 0.0 | 6.0 | 0.00 | 0.00 | 0.00 | 92 | 1016.6 |
| 20260502100203 | 50 | 118 | 1.0 | 3.0 | 0.00 | 0.00 | 0.00 | 93 | 1016.6 |
| 20260502091509 | 49 | 110 | 0.0 | 3.0 | 0.00 | 0.00 | 0.00 | 91 | 1016.2 |
| 20260502090802 | 50 | 164 | 1.0 | 4.0 | 0.00 | 0.00 | 0.00 | 91 | 1015.6 |
| 20260502090116 | 50 | 195 | 1.0 | 7.0 | 0.00 | 0.00 | 0.00 | 91 | 1016.2 |
| 20260502071503 | 50 | 155 | 1.0 | 4.0 | 0.00 | 0.00 | 0.00 | 90 | 1016.6 |
| 20260502071102 | 50 | 130 | 1.0 | 2.0 | 0.00 | 0.00 | 0.00 | 90 | 1016.0 |
| 20260502070203 | 51 | 123 | 1.0 | 6.0 | 0.00 | 0.00 | 0.00 | 89 | 1016.0 |
| 20260502064507 | 50 | 155 | 0.0 | 3.0 | 0.00 | 0.00 | 0.00 | 89 | 1016.5 |
| 20260502064402 | 50 | 149 | 0.0 | 3.0 | 0.00 | 0.00 | 0.00 | 89 | 1016.1 |
| 20260502063503 | 51 | 155 | 1.0 | 3.0 | 0.00 | 0.00 | 0.00 | 89 | 1016.0 |
| 20260502063002 | 50 | 150 | 0.0 | 4.0 | 0.00 | 0.00 | 0.00 | 89 | 1016.7 |
| 20260502061702 | 51 | 154 | 1.0 | 5.0 | 0.00 | 0.00 | 0.00 | 88 | 1016.1 |
| 20260502061604 | 51 | 148 | 0.0 | 5.0 | 0.00 | 0.00 | 0.00 | 89 | 1016.6 |
| 20260502060003 | 51 | 119 | 0.0 | 8.0 | 0.00 | 0.00 | 0.00 | 88 | 1016.4 |
| 20260502055902 | 51 | 162 | 1.0 | 8.0 | 0.00 | 0.00 | 0.00 | 88 | 1016.0 |
| 20260502055003 | 51 | 156 | 1.0 | 5.0 | 0.00 | 0.00 | 0.00 | 88 | 1016.0 |
| 20260502054605 | 51 | 168 | 0.0 | 3.0 | 0.00 | 0.00 | 0.00 | 88 | 1016.5 |
| 20260502054102 | 52 | 142 | 1.0 | 7.0 | 0.00 | 0.00 | 0.00 | 88 | 1016.1 |
| 20260502053004 | 51 | 127 | 0.0 | 7.0 | 0.00 | 0.00 | 0.00 | 87 | 1016.7 |
| 20260502052305 | 52 | 149 | 1.0 | 7.0 | 0.00 | 0.00 | 0.00 | 87 | 1016.0 |
| 20260502051702 | 52 | 150 | 0.0 | 6.0 | 0.00 | 0.00 | 0.00 | 87 | 1016.5 |
| 20260502051403 | 52 | 142 | 1.0 | 6.0 | 0.00 | 0.00 | 0.00 | 86 | 1015.9 |
| 20260502050503 | 52 | 199 | 2.0 | 8.0 | 0.00 | 0.00 | 0.00 | 86 | 1016.1 |
| 20260502050003 | 52 | 186 | 1.0 | 6.0 | 0.00 | 0.00 | 0.00 | 86 | 1016.4 |
| 20260502045602 | 52 | 160 | 2.0 | 6.0 | 0.00 | 0.00 | 0.00 | 85 | 1015.9 |
| 20260502044610 | 52 | 202 | 3.0 | 8.0 | 0.00 | 0.00 | 0.00 | 85 | 1016.4 |
| 20260502043802 | 53 | 158 | 1.0 | 10.0 | 0.00 | 0.00 | 0.00 | 84 | 1015.6 |
| 20260502043001 | 53 | 121 | 0.0 | 6.0 | 0.00 | 0.00 | 0.00 | 83 | 1016.2 |
| 20260502042902 | 53 | 187 | 2.0 | 7.0 | 0.00 | 0.00 | 0.00 | 83 | 1015.5 |
| 20260502041600 | 53 | 211 | 4.0 | 11.0 | 0.00 | 0.00 | 0.00 | 82 | 1016.0 |
| 20260502040202 | 54 | 186 | 2.0 | 11.0 | 0.00 | 0.00 | 0.00 | 81 | 1015.2 |
| 20260502040001 | 54 | 160 | 0.0 | 11.0 | 0.00 | 0.00 | 0.00 | 81 | 1015.6 |
| 20260502035306 | 55 | 200 | 2.0 | 6.0 | 0.00 | 0.00 | 0.00 | 80 | 1015.2 |
| 20260502034601 | 55 | 127 | 1.0 | 10.0 | 0.00 | 0.00 | 0.00 | 79 | 1015.5 |
| 20260502033502 | 56 | 156 | 2.0 | 6.0 | 0.00 | 0.00 | 0.00 | 78 | 1014.8 |
| 20260502033002 | 56 | 169 | 2.0 | 7.0 | 0.00 | 0.00 | 0.00 | 78 | 1015.3 |
| 20260502032602 | 57 | 189 | 2.0 | 9.0 | 0.00 | 0.00 | 0.00 | 77 | 1014.8 |
| 20260502031703 | 57 | 162 | 2.0 | 6.0 | 0.00 | 0.00 | 0.00 | 77 | 1014.7 |
| 20260502031612 | 57 | 152 | 1.0 | 6.0 | 0.00 | 0.00 | 0.00 | 77 | 1015.2 |
| 20260502030802 | 58 | 156 | 3.0 | 11.0 | 0.00 | 0.00 | 0.00 | 76 | 1014.5 |
| 20260502030000 | 58 | 126 | 2.0 | 10.0 | 0.00 | 0.00 | 0.00 | 75 | 1015.0 |
| 20260502025903 | 58 | 174 | 2.0 | 10.0 | 0.00 | 0.00 | 0.00 | 75 | 1014.4 |
| 20260502024601 | 59 | 186 | 1.0 | 9.0 | 0.00 | 0.00 | 0.00 | 74 | 1014.8 |
| 20260502023002 | 60 | 198 | 2.0 | 6.0 | 0.00 | 0.00 | 0.00 | 71 | 1014.4 |
| 20260502022306 | 61 | 193 | 2.0 | 6.0 | 0.00 | 0.00 | 0.00 | 70 | 1013.9 |
| 20260502021601 | 62 | 238 | 1.0 | 5.0 | 0.00 | 0.00 | 0.00 | 68 | 1014.4 |
| 20260502021403 | 62 | 158 | 2.0 | 8.0 | 0.00 | 0.00 | 0.00 | 68 | 1013.9 |
| 20260502020502 | 63 | 165 | 2.0 | 8.0 | 0.00 | 0.00 | 0.00 | 67 | 1013.9 |
| 20260502020001 | 62 | 340 | 3.0 | 10.0 | 0.00 | 0.00 | 0.00 | 66 | 1014.3 |
| 20260502014703 | 64 | 152 | 2.0 | 8.0 | 0.00 | 0.00 | 0.00 | 66 | 1013.9 |
| 20260502014600 | 64 | 146 | 1.0 | 8.0 | 0.00 | 0.00 | 0.00 | 65 | 1014.4 |
| 20260502013803 | 65 | 198 | 3.0 | 9.0 | 0.00 | 0.00 | 0.00 | 65 | 1013.7 |
| 20260502013001 | 65 | 150 | 2.0 | 8.0 | 0.00 | 0.00 | 0.00 | 63 | 1014.5 |
| 20260502012903 | 65 | 202 | 3.0 | 8.0 | 0.00 | 0.00 | 0.00 | 63 | 1013.8 |
| 20260502012003 | 66 | 210 | 3.0 | 9.0 | 0.00 | 0.00 | 0.00 | 64 | 1014.0 |
| 20260502011602 | 65 | 218 | 2.0 | 8.0 | 0.00 | 0.00 | 0.00 | 64 | 1014.5 |
| 20260502010202 | 68 | 205 | 2.0 | 10.0 | 0.00 | 0.00 | 0.00 | 62 | 1014.0 |
| 20260502010001 | 67 | 248 | 4.0 | 10.0 | 0.00 | 0.00 | 0.00 | 61 | 1014.5 |
| 20260502005306 | 69 | 178 | 3.0 | 8.0 | 0.00 | 0.00 | 0.00 | 62 | 1014.0 |
| 20260502004602 | 68 | 218 | 2.0 | 13.0 | 0.00 | 0.00 | 0.00 | 62 | 1014.4 |
| 20260502004403 | 69 | 212 | 3.0 | 13.0 | 0.00 | 0.00 | 0.00 | 61 | 1013.8 |
| 20260502003503 | 70 | 179 | 3.0 | 9.0 | 0.00 | 0.00 | 0.00 | 62 | 1013.6 |
| 20260502003004 | 69 | 143 | 1.0 | 9.0 | 0.00 | 0.00 | 0.00 | 62 | 1014.1 |
| 20260502002603 | 70 | 217 | 3.0 | 10.0 | 0.00 | 0.00 | 0.00 | 62 | 1013.7 |